Flag for Papua New Guinea Weather past 2 weeks in Lae, Papua New Guinea

Now
77 °F

Passing clouds.


Feels Like: 79 °F
Forecast: 71 / 90 °F
Wind: 16 mph from Southeast

Location: Moresby

Current Time: Oct 24, 2014 at 12:18:26 AM

Latest Report: Oct 24, 2014 at 12:00 AM


Visibility: N/A

Pressure: 29.86 "Hg

Humidity: 74%

Dew point: 68 °F

Location of LaeLocation

Historic Weather in Lae — Graph

°F

Lae temperature yesterday

Maximum temperature yesterday: 88 °F (at 12:00 PM)
Minimum temperature yesterday: 75 °F (at 5:00 AM)
Average temperature yesterday: 80 °F

Past Weeks' High & Low Weather Summary

 TemperatureHumidityPressure
High102 °F (Oct 10, 3:00 PM)100% (Oct 10, 6:00 AM)29.92 "Hg (Oct 10, 6:00 AM)
Low73 °F (Oct 13, 5:00 AM)40% (Oct 10, 3:00 PM)29.74 "Hg (Oct 9, 3:00 PM)
Average80 °F77%29.83 "Hg
* Reported Oct 8 11:00 PM — Oct 23 11:00 PM, Lae, Weather by CustomWeather, © 2014

Note: Actual official high and low records may vary slightly from our data, if they occured in-between our weather recording intervals... More about our weather records

Advertising

Lae weather history for previous 24 hours

 ConditionsComfort  
Time TempWeatherWind HumidityBarometerVisibility
11:00 PM
Oct 23
77 °FPassing clouds.16 mph74%29.89 "HgN/A
10:00 PM79 °FPartly cloudy.17 mph70%29.89 "HgN/A
9:00 PM79 °FPassing clouds.15 mph70%29.89 "HgN/A
8:00 PM79 °FPassing clouds.17 mph65%29.86 "HgN/A
7:00 PM79 °FPartly cloudy.15 mph65%29.86 "HgN/A
6:00 PM79 °FBroken clouds.14 mph65%29.83 "HgN/A
5:00 PM81 °FWarm.29 mph66%29.80 "HgN/A
4:00 PM82 °FBroken clouds.23 mph66%29.77 "HgN/A
3:00 PM86 °FScattered clouds.21 mph59%29.77 "HgN/A
2:00 PM84 °FPartly sunny.18 mph62%29.80 "HgN/A
1:00 PM84 °FPartly sunny.18 mph62%29.80 "HgN/A
12:00 PM88 °FPartly sunny.18 mph55%29.83 "HgN/A
11:00 AM86 °FPartly sunny.16 mph59%29.86 "HgN/A
10:01 AM82 °FPartly sunny.17 mph62%29.89 "HgN/A
9:00 AM81 °FBroken clouds.17 mph70%29.89 "HgN/A
7:00 AM77 °FBroken clouds.12 mph79%29.83 "HgN/A
6:00 AM75 °FBroken clouds.9 mph78%29.83 "HgN/A
5:00 AM75 °FPassing clouds.9 mph83%29.83 "HgN/A
4:00 AM77 °FPassing clouds.9 mph74%29.83 "HgN/A
3:00 AM77 °FPassing clouds.9 mph79%29.83 "HgN/A
2:00 AM77 °FPassing clouds.14 mph79%29.83 "HgN/A
1:00 AM77 °FPassing clouds.12 mph79%29.86 "HgN/A
12:00 AM77 °FPassing clouds.14 mph79%29.89 "HgN/A
Weather by CustomWeather, © 2014

See weather overviewHow to use our weather pages